TimeCDT,TemperatureF,Dew PointF,Humidity,Sea Level PressureIn,VisibilityMPH,Wind Direction,Wind SpeedMPH,Gust SpeedMPH,PrecipitationIn,Events,Conditions,WindDirDegrees,DateUTC
12:54 AM,35.1,23.0,61,30.27,10.0,NW,15.0,20.7,N/A,,Scattered Clouds,310,2013-03-26 05:54:00
1:54 AM,34.0,21.9,61,30.27,10.0,NW,10.4,-,N/A,,Mostly Cloudy,310,2013-03-26 06:54:00
2:54 AM,33.1,21.0,61,30.25,10.0,NW,12.7,-,N/A,,Scattered Clouds,310,2013-03-26 07:54:00
3:54 AM,32.0,21.9,66,30.25,10.0,NW,9.2,-,N/A,,Partly Cloudy,310,2013-03-26 08:54:00
4:54 AM,32.0,23.0,69,30.26,10.0,NW,10.4,-,N/A,,Mostly Cloudy,310,2013-03-26 09:54:00
5:47 AM,32.0,24.8,75,30.26,10.0,NW,8.1,-,N/A,,Mostly Cloudy,320,2013-03-26 10:47:00
5:54 AM,30.9,24.1,76,30.27,10.0,NW,9.2,-,N/A,,Scattered Clouds,320,2013-03-26 10:54:00
6:03 AM,32.0,24.8,75,30.27,10.0,NW,10.4,-,N/A,,Mostly Cloudy,320,2013-03-26 11:03:00
6:54 AM,30.9,23.0,72,30.30,10.0,NW,10.4,-,N/A,,Mostly Cloudy,310,2013-03-26 11:54:00
7:00 AM,30.2,24.8,80,30.29,10.0,NW,8.1,-,N/A,,Mostly Cloudy,310,2013-03-26 12:00:00
7:33 AM,32.0,24.8,75,30.30,10.0,NW,6.9,-,N/A,,Scattered Clouds,310,2013-03-26 12:33:00
7:54 AM,33.1,24.1,70,30.32,10.0,NW,8.1,-,N/A,,Scattered Clouds,320,2013-03-26 12:54:00
8:54 AM,36.0,26.1,67,30.35,10.0,NNW,6.9,-,N/A,,Scattered Clouds,330,2013-03-26 13:54:00
9:54 AM,39.0,27.0,62,30.36,10.0,NNW,8.1,17.3,N/A,,Mostly Cloudy,340,2013-03-26 14:54:00
10:49 AM,39.2,26.6,61,30.37,10.0,NW,5.8,17.3,N/A,,Scattered Clouds,310,2013-03-26 15:49:00
10:54 AM,41.0,27.0,57,30.38,10.0,NW,9.2,-,N/A,,Scattered Clouds,320,2013-03-26 15:54:00
11:12 AM,42.8,28.4,57,30.37,10.0,West,10.4,16.1,N/A,,Mostly Cloudy,280,2013-03-26 16:12:00
11:46 AM,44.6,26.6,49,30.37,10.0,NW,15.0,-,N/A,,Mostly Cloudy,310,2013-03-26 16:46:00
11:54 AM,44.1,27.0,51,30.38,10.0,NW,11.5,-,N/A,,Mostly Cloudy,320,2013-03-26 16:54:00
12:01 PM,44.6,24.8,46,30.37,10.0,NNW,8.1,-,N/A,,Mostly Cloudy,330,2013-03-26 17:01:00
12:19 PM,42.8,24.8,49,30.37,10.0,NW,12.7,18.4,N/A,,Mostly Cloudy,320,2013-03-26 17:19:00
12:54 PM,43.0,24.1,47,30.38,10.0,NW,11.5,-,N/A,,Mostly Cloudy,310,2013-03-26 17:54:00
1:54 PM,46.9,25.0,42,30.37,10.0,NNW,11.5,-,N/A,,Mostly Cloudy,330,2013-03-26 18:54:00
2:54 PM,45.0,24.1,44,30.36,10.0,NW,10.4,-,N/A,,Mostly Cloudy,320,2013-03-26 19:54:00
3:54 PM,44.1,23.0,43,30.35,10.0,NNW,4.6,-,N/A,,Scattered Clouds,340,2013-03-26 20:54:00
4:54 PM,44.1,24.1,45,30.34,10.0,WNW,8.1,-,N/A,,Scattered Clouds,290,2013-03-26 21:54:00
5:54 PM,44.1,23.0,43,30.35,10.0,NW,6.9,-,N/A,,Scattered Clouds,310,2013-03-26 22:54:00
6:54 PM,43.0,23.0,45,30.35,10.0,NNW,8.1,-,N/A,,Partly Cloudy,330,2013-03-26 23:54:00
7:54 PM,42.1,23.0,47,30.36,10.0,NW,3.5,-,N/A,,Partly Cloudy,320,2013-03-27 00:54:00
8:54 PM,39.9,25.0,55,30.37,10.0,Calm,Calm,-,N/A,,Clear,0,2013-03-27 01:54:00
9:54 PM,35.1,25.0,67,30.37,10.0,South,6.9,-,N/A,,Clear,190,2013-03-27 02:54:00
10:54 PM,34.0,25.0,70,30.37,10.0,South,4.6,-,N/A,,Clear,190,2013-03-27 03:54:00
11:54 PM,35.1,25.0,67,30.36,10.0,South,5.8,-,N/A,,Clear,190,2013-03-27 04:54:00